sat.trackr.live / text

‹ back to catalog

STARLINK-35299

NORAD 66072 · 2025-235Q

PAYLOAD ACTIVE UNKNOWN

§ Identity

Operator
Country
US
Launch date
2025-10-19
Launch site
AFETR
Launch vehicle
Mass (kg)
RCS (m²)

Purposes: comms

External: N2YO · Heavens-Above · Gunter

§ Orbital elements

Epoch: 2026-09-20T14:26:21.224256Z

Period
93.85 min
Inclination
53.1580°
Eccentricity
0.0001378
Mean motion
15.34397031 rev/d
Perigee alt
461.8 km
Apogee alt
463.7 km
Semi-major
6,840.8 km
B*
5.5278e-4
RAAN
57.0665°
Arg perigee
88.4160°
Mean anomaly
271.7000°
Rev number
5,280

§ Raw data

STARLINK-352991 66072U 25235Q   26263.60163454  .00018344  00000+0  55278-3 0  99952 66072  53.1580  57.0665 0001378  88.4160 271.7000 15.34397031 52808

JSON: /api/v1/satellites/66072 · /tle

For live sub-satellite position, see the globe view (requires WebGL).

§ Visibility from observer

Set your observer location to see the next 7 days of passes ≥ 10°. The values pass through the URL so the page stays shareable.

No JS? Fill the form by hand. The geolocation button needs JavaScript.